WESTFORD NEEDLES, 3257

Orbit data source: Space-Track

WESTFORD NEEDLES, 3257 is space debris in LEO originally from a launch on Thu, 09 May 1963 UTC launched from the Air Force Western Test Range (AFWTR). Debris objects in space refer to the collection of defunct objects orbiting the Earth. Examples of debris include non-operational satellites, rocket bodies, and fragments generated from explosions, collisions, or faulty payload assembly.

Loading next visibility...
Identifier
3257, 1963-014BX
Orbit
LEO
Country
Flag of USUS
Related business
Manufacturer
Unknown
Mission
Spacecraft
Bus & Motor
Unknown
Mass
Unknown
Launch date (UTC)
1963-05-09 (63 years ago)
Launch vehicle
Unknown
Launch site
Air Force Western Test Range (AFWTR)
Object type
Payload
Rocket body
Debris
Shape & HBR
Unknown shape, 1.1 m
Radar Cross Section
Medium (>0.1 m² and <1 m²)

Expand to show TLE details & history
Last TLE update: 1 day ago

TLE from 1 day ago
0 WESTFORD NEEDLES
1 03257U 63014BX  26191.29245098  .00000585  00000-0  24740+0 0  9993
2 03257  87.3161 145.8990 0430510 136.6592 226.8971  8.65543028 61931
Epoch: 2026-07-10T07:01Z
TLE epoch observation values (Epoch: 2026-07-10T07:01:07.764Z)
Latitude
-0.00001°
Longitude
112.39454°
Altitude
3,948.529 km
Speed
6.118 km/s
True Right ascension
09h 43m 35s
True Declination
0° 00' 00"
Sunlit
Object was in daylight at epoch
Visualization orbit readout
Latitude
Unknown
Longitude
Unknown
Altitude
Unknown
Speed
Unknown
Apparent Right ascension
Unknown
Apparent Declination
Unknown
Sunlit
N/A
Visualization observer readout
Local Sidereal Time
03:08:26
Azimuth
Unknown
Elevation
Unknown
Doppler factor
Unknown
Orbital elements
Apogee altitude
4,071.158 km
Perigee altitude
3,208.587 km
Semi-major axis
10,018.01 km
Eccentricity
0.04305
Inclination
87.3161°
RAAN
145.899°
Arg. of periapsis
136.6592°
True anomaly
223.42521°
Mean anomaly
226.8971°
Eccentric anomaly
225.14841°
Mean motion
2.16457 °/min
Orbital period
166.32 mins
BSTAR
0.2474

Documentation

Showing up to 5 results
|